Cosmos 1461 - Orbit

View from above orbital plane
View from above orbital plane
View from above satellite
View from above satellite

Ground track
Ground track

The orbit data is extracted from the following two-line orbital elements,

1 14064U 83044A   13140.53433434  .00002894  00000-0  29643-3 0  1792
2 14064 065.0052 188.6576 0137363 272.5886 233.6018 14.85744887501473
Epoch (UTC): 20 May 2013 12:49:26
Eccentricity: 0.0137363
inclination: 65.0052°
perigee height: 515 km
apogee height: 707 km
right ascension of ascending node: 188.6576°
argument of perigee: 272.5886°
revolutions per day: 14.85744887
mean anomaly at epoch: 233.6018°
orbit number at epoch: 50147

The dashed part of the orbit path shows where the satellite is in the earth's shadow,  

Developed and maintained by Chris Peat, Heavens-Above GmbH. Please read the updated FAQ before sending e-mail. Imprint. DLR